Location: Boiro
(42.6475°N, 8.8834°W)
Time: 08:22:36
(UTC+02:00)

First-Move - Pass Details

Date: 22 April 2024
Orbit: 538 x 600 km, 97.7° (Epoch: 20 May)

Event Time Altitude Azimuth Distance (km) Brightness Sun altitude
Rises 05:56:14 0° 14° (NNE) 2,867 ? -18.2°
Reaches altitude 10° 05:58:25 10° 16° (NNE) 1,964 ? -17.8°
Maximum altitude 06:02:42 75° 102° (ESE) 634 ? -17.2°
Enters shadow 06:05:41 19° 186° (S) 1,443 ? -16.8°
